TimeCST,TemperatureF,Dew PointF,Humidity,Sea Level PressureIn,VisibilityMPH,Wind Direction,Wind SpeedMPH,Gust SpeedMPH,PrecipitationIn,Events,Conditions,WindDirDegrees,DateUTC
12:52 AM,30.9,24.1,76,30.14,-9999.0,North,5.8,-,N/A,,Unknown,360,2012-11-26 06:52:00
1:52 AM,28.9,23.0,78,30.15,-9999.0,North,5.8,-,N/A,,Unknown,360,2012-11-26 07:52:00
2:52 AM,28.9,24.1,82,30.17,-9999.0,North,5.8,-,N/A,,Unknown,360,2012-11-26 08:52:00
3:52 AM,30.0,24.1,79,30.18,-9999.0,North,6.9,-,N/A,,Unknown,10,2012-11-26 09:52:00
4:52 AM,30.9,24.1,76,30.20,-9999.0,NNE,4.6,-,N/A,,Unknown,20,2012-11-26 10:52:00
5:52 AM,30.9,24.1,76,30.22,-9999.0,NNE,5.8,-,N/A,,Unknown,20,2012-11-26 11:52:00
6:52 AM,30.9,23.0,72,30.25,-9999.0,NNE,4.6,-,N/A,,Unknown,20,2012-11-26 12:52:00
7:52 AM,32.0,21.9,66,30.27,-9999.0,NNE,8.1,-,N/A,,Unknown,20,2012-11-26 13:52:00
8:52 AM,36.0,21.9,57,30.29,-9999.0,NE,12.7,18.4,N/A,,Unknown,40,2012-11-26 14:52:00
9:52 AM,36.0,21.0,55,30.33,-9999.0,NNE,12.7,20.7,N/A,,Unknown,30,2012-11-26 15:52:00
10:52 AM,37.0,21.9,54,30.37,-9999.0,NNE,11.5,-,N/A,,Unknown,20,2012-11-26 16:52:00
11:52 AM,37.0,23.0,57,30.38,-9999.0,North,10.4,-,N/A,,Unknown,10,2012-11-26 17:52:00
12:52 PM,34.0,25.0,70,30.39,-9999.0,NNE,11.5,-,N/A,,Unknown,20,2012-11-26 18:52:00
1:52 PM,36.0,21.9,57,30.39,-9999.0,North,10.4,18.4,N/A,,Unknown,360,2012-11-26 19:52:00
2:52 PM,34.0,21.0,59,30.40,-9999.0,North,10.4,18.4,N/A,,Unknown,350,2012-11-26 20:52:00
3:52 PM,34.0,21.0,59,30.41,-9999.0,North,9.2,-,N/A,,Unknown,350,2012-11-26 21:52:00
4:52 PM,33.1,19.9,59,30.42,-9999.0,North,5.8,-,N/A,,Unknown,10,2012-11-26 22:52:00
5:52 PM,30.0,18.0,61,30.43,-9999.0,North,3.5,-,N/A,,Unknown,360,2012-11-26 23:52:00
6:52 PM,28.9,18.0,64,30.47,-9999.0,North,5.8,-,N/A,,Unknown,350,2012-11-27 00:52:00
7:52 PM,27.0,15.1,61,30.48,-9999.0,North,6.9,-,N/A,,Unknown,350,2012-11-27 01:52:00
8:52 PM,25.0,12.9,60,30.50,-9999.0,North,4.6,-,N/A,,Unknown,350,2012-11-27 02:52:00
9:52 PM,23.0,10.9,60,30.51,-9999.0,Variable,4.6,-,N/A,,Unknown,0,2012-11-27 03:52:00
10:52 PM,21.0,10.9,65,30.52,-9999.0,Calm,Calm,-,N/A,,Unknown,0,2012-11-27 04:52:00
11:52 PM,18.0,10.9,74,30.53,-9999.0,Calm,Calm,-,N/A,,Unknown,0,2012-11-27 05:52:00